Location: ?????????
(53.2086°N, 54.0693°E)
Time: 02:09:19
(UTC+00:00)

Cosmos 1400 Rocket - Pass Details

Date: 08 December 2019
Orbit: 522 x 568 km, 81.2° (Epoch: 28 January)

Event Time Altitude Azimuth Distance (km) Brightness Sun altitude
Rises 12:55:48 0° 195° (SSW) 2,749 7.1 -6.9°
Reaches altitude 10° 12:57:59 10° 197° (SSW) 1,853 6.2 -7.2°
Maximum altitude 13:02:05 79° 283° (WNW) 577 3.0 -7.8°
Drops below altitude 10° 13:06:09 10° 11° (NNE) 1,845 5.1 -8.3°
Sets 13:08:20 0° 13° (NNE) 2,736 6.0 -8.6°
Enters shadow 13:08:22 - 13° (NNE) 2,750 6.0 -8.6°
